[[{"header":{"parameterUnit":"m.s-1","parameterCategory":1,"la1":30.2991,"la2":30.254,"lo1":-89.0895,"lo2":-89.0444,"dy":0.0017,"dx":0.0017,"nx":28,"ny":28,"refTime":"2024-02-18T03:00:00:Z","depth":0,"parameterNumber":2,"parameterNumberName":"U-component_of_WINDS"},"data":[0,0,0,0,0,0,0,0,0,0,0,0,0,0,0,0,0,0,0,0,0,0,0,0,0,0,0,0,0,0,0,0,0,0,0,0,0,0,0,0,0,0,0,0,0,0,0,0,0,0,0,0,0,0,0,0,0,0,-2.2335,-2.2336,0,-2.2426,-2.2427,-2.2428,-2.2388,-2.2386,-2.2384,-2.2381,-2.2476,-2.248,-2.2484,0,0,0,0,0,0,0,0,0,0,0,0,0,-2.2128,-2.2132,-2.2335,-2.2336,-2.2337,-2.2426,-2.2427,-2.2428,-2.2388,-2.2386,-2.2383,-2.238,-2.2474,-2.2479,-2.2485,0,0,0,0,0,0,0,0,0,0,0,0,0,-2.2218,-2.2133,-2.2335,-2.2328,-2.2328,-2.2425,-2.2427,-2.2428,-2.2389,-2.2386,-2.2382,-2.2379,-2.2472,-2.2479,-2.2486,-2.2595,0,0,-2.2507,-2.251,0,0,0,0,0,0,0,0,-2.2213,-2.2226,-2.2328,-2.2329,-2.2329,-2.2392,-2.2388,-2.2484,-2.239,-2.2366,-2.2381,-2.2378,-2.2451,-2.2459,-2.2483,-2.2599,-2.2603,-2.2507,-2.2511,-2.2514,-2.2516,0,0,0,0,0,0,0,-2.2207,-2.2221,-2.2371,-2.2329,-2.233,-2.2321,-2.233,-2.2406,-2.2426,-2.2368,-2.2365,-2.2376,-2.245,-2.2477,-2.2485,-2.2605,-2.2507,-2.2513,-2.2517,-2.252,-2.2814,-2.2818,0,0,0,0,0,0,-2.22,-2.2217,-2.2368,-2.2374,-2.2262,-2.2327,-2.2337,-2.2375,-2.2425,-2.2429,-2.2379,-2.2374,-2.2467,-2.2477,-2.2488,-2.262,-2.2514,-2.2521,-2.2525,-2.2811,-2.2815,-2.2819,0,0,0,0,0,0,-2.2196,-2.2214,-2.2364,-2.2294,-2.2313,-2.2334,-2.2377,-2.2379,-2.2405,-2.2433,-2.2437,-2.2403,-2.2465,-2.2479,-2.2569,-2.2623,-2.2524,-2.253,-2.2806,-2.2812,-2.2817,-2.2884,0,0,0,0,0,0,-2.219,-2.2213,-2.2255,-2.2296,-2.2317,-2.2443,-2.2381,-2.2383,-2.2417,-2.2412,-2.2457,-2.2461,-2.2463,-2.2559,-2.2575,-2.263,-2.2535,-2.2802,-2.2809,-2.2815,-2.2877,-2.2891,-2.2903,0,0,0,0,0,-2.2183,-2.227,-2.2257,-2.2276,-2.2369,-2.2446,-2.2458,-2.2459,-2.2422,-2.2464,-2.2482,-2.2459,-2.2613,-2.2568,-2.2587,-2.2645,-2.2798,-2.2807,-2.2815,-2.2871,-2.2888,-2.2902,0,0,0,0,0,0,-2.2236,-2.2275,-2.2261,-2.2364,-2.2402,-2.244,-2.2493,-2.2477,-2.2527,-2.252,-2.2518,-2.2529,-2.2622,-2.2642,-2.259,-2.2752,-2.27,-2.2713,-2.2736,-2.2753,-2.2766,-2.276,-2.2541,0,0,0,0,0,-2.2259,-2.2318,-2.235,-2.2438,-2.2457,-2.2472,-2.2506,-2.2502,-2.2542,-2.2558,-2.2582,-2.2622,-2.2679,-2.2716,-2.2771,-2.2879,-2.2888,-2.2927,-2.294,-2.2951,-2.2962,-2.3021,-2.3039,-2.2846,-2.2846,-2.2846,0,0,-2.2309,-2.2338,-2.2375,-2.2449,-2.2478,-2.2539,-2.2486,-2.2553,-2.2599,-2.2568,-2.2655,-2.2674,-2.2717,-2.2817,-2.2862,-2.2836,-2.3017,-2.2961,-2.297,-2.2975,-2.3031,-2.3049,-2.3066,-2.2852,-2.2851,-2.285,0,0,-2.2431,-2.2458,-2.2535,-2.2564,-2.2609,-2.2618,-2.2636,-2.2675,-2.2687,-2.2773,-2.2751,-2.2805,-2.2904,-2.2936,-2.2965,-2.3098,-2.3079,-2.3115,-2.3184,-2.3241,-2.3256,-2.327,-2.3318,-2.3335,-2.3126,-2.3126,-2.3126,0,-2.2487,-2.2579,-2.2576,-2.2645,-2.2678,-2.2652,-2.2729,-2.2758,-2.2818,-2.2842,-2.2812,-2.2935,-2.2962,-2.3069,-2.3101,-2.3125,-2.3146,-2.3111,-2.3254,-2.3268,-2.328,-2.3326,-2.3344,-2.313,-2.313,-2.3129,-2.3129,0,-2.2646,-2.271,-2.2766,-2.2824,-2.2863,-2.2936,-2.2944,-2.2984,-2.2977,-2.2989,-2.3077,-2.3109,-2.3169,-2.3194,-2.3188,-2.3299,-2.3282,-2.3253,-2.3201,-2.3303,-2.3346,-2.3363,-2.3136,-2.3135,-2.3133,-2.3132,0,0,-2.2806,-2.286,-2.2881,-2.2907,-2.2953,-2.3003,-2.3074,-2.3132,-2.3167,-2.3208,-2.3268,-2.3352,-2.3325,-2.3358,-2.3355,-2.3405,-2.3508,-2.337,-2.3371,-2.3395,-2.3634,-2.3656,-2.3677,-2.3495,-2.3498,-2.3501,-2.363,0,-2.2932,-2.3058,-2.3056,-2.3172,-2.3231,-2.3206,-2.3268,-2.3303,-2.3316,-2.3368,-2.3381,-2.3441,-2.3401,-2.342,-2.3469,-2.3486,-2.3556,-2.3476,-2.3552,-2.3555,-2.3543,-2.3699,-2.3723,-2.3844,-2.3647,-2.365,-2.3652,0,-2.3097,-2.3144,-2.3266,-2.3302,-2.3327,-2.3383,-2.3436,-2.3486,-2.3524,-2.353,-2.3566,-2.3555,-2.3628,-2.3571,-2.3671,-2.3617,-2.3647,-2.366,-2.3665,-2.3673,-2.3611,-2.3713,-2.3883,-2.3901,-2.3678,-2.3676,-2.3674,0,-2.3203,-2.3296,-2.3381,-2.3403,-2.3449,-2.3488,-2.3509,-2.3544,-2.3579,-2.3625,-2.3648,-2.3702,-2.3732,-2.3773,-2.3777,-2.3736,-2.3878,-2.3822,-2.3885,-2.3885,-2.3918,-2.3916,-2.4096,-2.3935,-2.3935,-2.3934,-2.3934,0,-2.3345,-2.3421,-2.3429,-2.3482,-2.3565,-2.3563,-2.3646,-2.3663,-2.3694,-2.3749,-2.373,-2.3782,-2.3783,-2.3837,-2.384,-2.3922,-2.3935,-2.3942,-2.3942,-2.3945,-2.3944,-2.3966,-2.3958,-2.3939,-2.3938,-2.3937,-2.3936,0,-2.3479,-2.3487,-2.3578,-2.3612,-2.3623,-2.3683,-2.3713,-2.3763,-2.3772,-2.3843,-2.3859,-2.3875,-2.3936,-2.3943,-2.4015,-2.4017,-2.4117,-2.4107,-2.4104,-2.4103,-2.4166,-2.416,-2.4368,-2.4395,-2.4215,-2.4217,-2.4218,0,-2.357,-2.3627,-2.3668,-2.3703,-2.3726,-2.3783,-2.3818,-2.3817,-2.3855,-2.3903,-2.3947,-2.4006,-2.4054,-2.4153,-2.4171,-2.4226,-2.4218,-2.4287,-2.4227,-2.4227,-2.4221,-2.4218,-2.4224,-2.43,-2.4302,-2.4303,-2.4304,0,-2.3731,-2.3732,-2.3783,-2.3836,-2.3879,-2.392,-2.3959,-2.3989,-2.3993,-2.4036,-2.4098,-2.4135,-2.4208,-2.4267,-2.4321,-2.4342,-2.4324,-2.4323,-2.4341,-2.4345,-2.4341,-2.4345,-2.4137,-2.4319,-2.4317,-2.4316,-2.4316,-2.4315,-2.3847,-2.3897,-2.3933,-2.3991,-2.402,-2.4056,-2.4105,-2.412,-2.4172,-2.4231,-2.4227,-2.4296,-2.4332,-2.4402,-2.4427,-2.4481,-2.4458,-2.4484,-2.449,-2.4497,-2.4504,-2.4331,-2.449,-2.449,-2.449,-2.4489,-2.4489,0,-2.4008,-2.4029,-2.4082,-2.4137,-2.4183,-2.4161,-2.4203,-2.4242,-2.4303,-2.4338,-2.4385,-2.4457,-2.4514,-2.4535,-2.4591,-2.463,-2.4623,-2.4645,-2.4643,-2.4648,-2.452,-2.45,-2.4649,-2.4649,-2.4649,-2.4649,-2.4649,-2.4649,-2.4097,-2.4181,-2.4186,-2.4283,-2.4304,-2.4371,-2.4397,-2.4431,-2.4459,-2.4539,-2.4586,-2.46,-2.463,-2.4687,-2.4738,-2.4743,-2.4765,-2.479,-2.4792,-2.4673,-2.4657,-2.4642,-2.4622,-2.4795,-2.4795,-2.4915,-2.4916,-2.4917]},{"header":{"parameterUnit":"m.s-1","parameterCategory":1,"la1":30.2991,"la2":30.254,"lo1":-89.0895,"lo2":-89.0444,"dy":0.0017,"dx":0.0017,"nx":28,"ny":28,"refTime":"2024-02-18T03:00:00:Z","depth":0,"parameterNumber":3,"parameterNumberName":"V-component_of_WINDS"},"data":[0,0,0,0,0,0,0,0,0,0,0,0,0,0,0,0,0,0,0,0,0,0,0,0,0,0,0,0,0,0,0,0,0,0,0,0,0,0,0,0,0,0,0,0,0,0,0,0,0,0,0,0,0,0,0,0,0,0,-8.6493,-8.6494,0,-8.663,-8.6632,-8.6633,-8.6548,-8.6544,-8.654,-8.6536,-8.6669,-8.6676,-8.6684,0,0,0,0,0,0,0,0,0,0,0,0,0,-8.6149,-8.6156,-8.6493,-8.6495,-8.6496,-8.663,-8.6632,-8.6634,-8.6548,-8.6543,-8.6539,-8.6534,-8.6667,-8.6675,-8.6684,0,0,0,0,0,0,0,0,0,0,0,0,0,-8.6293,-8.6158,-8.6492,-8.647,-8.6469,-8.6629,-8.6632,-8.6634,-8.6549,-8.6543,-8.6537,-8.6532,-8.6664,-8.6675,-8.6685,-8.6873,0,0,-8.6719,-8.6724,0,0,0,0,0,0,0,0,-8.6285,-8.6306,-8.6472,-8.6472,-8.6471,-8.6566,-8.6559,-8.6714,-8.6551,-8.6519,-8.6536,-8.6529,-8.6639,-8.6652,-8.669,-8.6879,-8.6885,-8.672,-8.6726,-8.6731,-8.6734,0,0,0,0,0,0,0,-8.6276,-8.63,-8.6547,-8.6474,-8.6474,-8.645,-8.6464,-8.6588,-8.6611,-8.6521,-8.6515,-8.6533,-8.6638,-8.668,-8.6693,-8.6887,-8.6719,-8.6729,-8.6736,-8.674,-8.7235,-8.7241,0,0,0,0,0,0,-8.6268,-8.6292,-8.6542,-8.6551,-8.6362,-8.6462,-8.6477,-8.6541,-8.6609,-8.6614,-8.6538,-8.6529,-8.6664,-8.668,-8.6697,-8.6921,-8.6731,-8.6741,-8.6748,-8.7228,-8.7236,-8.7244,0,0,0,0,0,0,-8.6261,-8.6292,-8.6537,-8.642,-8.645,-8.6474,-8.6547,-8.6547,-8.6589,-8.6622,-8.6625,-8.6578,-8.666,-8.6682,-8.683,-8.6924,-8.6746,-8.6756,-8.7221,-8.7231,-8.724,-8.737,0,0,0,0,0,0,-8.6252,-8.629,-8.6363,-8.6422,-8.6456,-8.667,-8.6553,-8.6554,-8.6609,-8.6598,-8.666,-8.6664,-8.6657,-8.6814,-8.6841,-8.6936,-8.6765,-8.7212,-8.7225,-8.7237,-8.7358,-8.7384,-8.7406,0,0,0,0,0,-8.624,-8.6393,-8.6367,-8.6398,-8.6549,-8.6676,-8.6695,-8.6686,-8.6617,-8.669,-8.6711,-8.6662,-8.691,-8.683,-8.686,-8.696,-8.7206,-8.7222,-8.7236,-8.7347,-8.7378,-8.7405,0,0,0,0,0,0,-8.6342,-8.64,-8.6372,-8.655,-8.6609,-8.6661,-8.6753,-8.6719,-8.6797,-8.6783,-8.6766,-8.6781,-8.6936,-8.6962,-8.6872,-8.7144,-8.7047,-8.7068,-8.7121,-8.7151,-8.7175,-8.7165,-8.6774,0,0,0,0,0,-8.6385,-8.6486,-8.6531,-8.6683,-8.6714,-8.6729,-8.6784,-8.6772,-8.6831,-8.6855,-8.6886,-8.6944,-8.7034,-8.7094,-8.7179,-8.7361,-8.7372,-8.7444,-8.7468,-8.7487,-8.7506,-8.7602,-8.7634,-8.7292,-8.7292,-8.7292,0,0,-8.6475,-8.652,-8.6584,-8.6704,-8.6749,-8.6851,-8.675,-8.6863,-8.6938,-8.6871,-8.7014,-8.7039,-8.7101,-8.7267,-8.7342,-8.7294,-8.7603,-8.7506,-8.7521,-8.7529,-8.7621,-8.7653,-8.7682,-8.7302,-8.7301,-8.7299,0,0,-8.6692,-8.6737,-8.6868,-8.6915,-8.6984,-8.6993,-8.7024,-8.7082,-8.7097,-8.724,-8.7192,-8.7279,-8.7436,-8.7483,-8.7527,-8.7761,-8.7718,-8.7788,-8.7913,-8.8008,-8.8035,-8.8058,-8.8141,-8.8171,-8.7807,-8.7807,-8.7807,0,-8.6795,-8.695,-8.6939,-8.7056,-8.7109,-8.7056,-8.7187,-8.7232,-8.7325,-8.7362,-8.7307,-8.7503,-8.7541,-8.7716,-8.7774,-8.7811,-8.7845,-8.7781,-8.8032,-8.8056,-8.8078,-8.8156,-8.8187,-8.7815,-8.7814,-8.7813,-8.7813,0,-8.7072,-8.718,-8.7277,-8.7371,-8.7435,-8.7559,-8.7564,-8.763,-8.7612,-8.7626,-8.7771,-8.7815,-8.7908,-8.7949,-8.7931,-8.8122,-8.809,-8.8034,-8.7936,-8.8119,-8.8192,-8.8222,-8.7827,-8.7824,-8.7821,-8.7819,0,0,-8.7357,-8.7444,-8.7479,-8.7521,-8.7593,-8.7675,-8.7794,-8.7888,-8.7944,-8.8009,-8.8108,-8.8241,-8.819,-8.8241,-8.8228,-8.8311,-8.8492,-8.8245,-8.8246,-8.8289,-8.8703,-8.8744,-8.8779,-8.8464,-8.847,-8.8475,-8.8697,0,-8.7578,-8.7791,-8.7784,-8.7981,-8.808,-8.803,-8.8134,-8.8188,-8.8204,-8.8287,-8.8303,-8.8398,-8.8324,-8.8354,-8.8434,-8.8453,-8.8575,-8.8437,-8.8554,-8.8558,-8.854,-8.8818,-8.8862,-8.907,-8.8726,-8.8731,-8.8734,0,-8.7864,-8.7942,-8.815,-8.8207,-8.8248,-8.8342,-8.8426,-8.8508,-8.8567,-8.8572,-8.8628,-8.8602,-8.872,-8.862,-8.8782,-8.8688,-8.8735,-8.8752,-8.876,-8.877,-8.8658,-8.8835,-8.9137,-8.9168,-8.878,-8.8776,-8.8773,0,-8.8051,-8.8207,-8.8351,-8.8388,-8.8458,-8.8525,-8.8557,-8.8611,-8.8667,-8.8739,-8.8775,-8.886,-8.8906,-8.8971,-8.8967,-8.8894,-8.9131,-8.903,-8.9137,-8.9137,-8.9189,-8.9186,-8.9502,-8.922,-8.922,-8.9219,-8.9218,0,-8.8299,-8.8427,-8.8436,-8.8525,-8.8667,-8.8657,-8.8797,-8.8821,-8.8869,-8.8959,-8.892,-8.9005,-8.8995,-8.908,-8.9077,-8.9211,-8.9232,-8.9238,-8.9236,-8.9242,-8.9241,-8.9272,-8.9258,-8.9227,-8.9226,-8.9224,-8.9223,0,-8.8531,-8.8543,-8.8697,-8.8751,-8.8767,-8.887,-8.8914,-8.8997,-8.9009,-8.9124,-8.915,-8.9169,-8.9267,-8.9269,-8.9381,-8.9379,-8.9542,-8.9524,-8.9523,-8.952,-8.9626,-8.9616,-8.9973,-9.0019,-8.9708,-8.9711,-8.9714,0,-8.8689,-8.8787,-8.8852,-8.8912,-8.8948,-8.9044,-8.9101,-8.9094,-8.9155,-8.9229,-8.9303,-8.9397,-8.9473,-8.9631,-8.9652,-8.9737,-8.972,-8.9839,-8.9732,-8.9735,-8.9721,-8.9715,-8.9724,-8.986,-8.9864,-8.9866,-8.9869,0,-8.8966,-8.8967,-8.9053,-8.9141,-8.9212,-8.928,-8.9343,-8.9393,-8.9392,-8.9463,-8.9564,-8.9622,-8.9737,-8.9831,-8.9913,-8.9942,-8.9905,-8.9902,-8.9931,-8.9938,-8.9934,-8.9937,-8.958,-8.9894,-8.9891,-8.989,-8.9888,-8.9887,-8.9166,-8.9251,-8.931,-8.9407,-8.9454,-8.9514,-8.9595,-8.9617,-8.9702,-8.9797,-8.9786,-8.9898,-8.9953,-9.006,-9.0096,-9.0181,-9.014,-9.0182,-9.0193,-9.0203,-9.0215,-8.9921,-9.0196,-9.0195,-9.0195,-9.0194,-9.0194,0,-8.9441,-8.9477,-8.9566,-8.9657,-8.9732,-8.9693,-8.9761,-8.9826,-8.9926,-8.9981,-9.0057,-9.0172,-9.0262,-9.0291,-9.0378,-9.0441,-9.0426,-9.0464,-9.0459,-9.0466,-9.0247,-9.0213,-9.0474,-9.0474,-9.0474,-9.0474,-9.0474,-9.0474,-8.9593,-8.9735,-8.9742,-8.9905,-8.9939,-9.0051,-9.0093,-9.0147,-9.0191,-9.0322,-9.0398,-9.0417,-9.0461,-9.0551,-9.0631,-9.0637,-9.067,-9.0715,-9.0714,-9.0509,-9.0481,-9.0454,-9.0422,-9.0723,-9.0723,-9.0925,-9.0927,-9.0929]}]]